#timestamp,LO_Frequency,Hit,StdDev 
1604052055.4,286046986.1,P
1604052075.2,286046988.1,P
1604052095.0,286046988.0,P
1604052095.9,286046988.0,Y
1604052115.8,286047001.1,P
1604052135.6,286047001.2,N
1604052155.5,286047001.1,N
1604052175.3,286046999.6,N
1604052195.1,286046998.4,N
1604052215.9,286046998.9,N
1604052235.7,286046997.0,N
1604052255.5,286046997.1,N
1604052275.4,286046998.5,N
1604052295.2,286046999.9,N
1604052315.1,286046998.2,N
1604052316.0,286046998.2,N
1604052335.8,286046997.2,N
1604052355.6,286046995.0,N
1604052375.5,286046995.9,N
1604052395.3,286046994.0,N
1604052415.2,286046993.1,N
1604052435.9,286046991.0,N
1604052455.7,286046990.9,N
1604052475.6,286046992.1,N
1604052495.4,286046991.8,N
1604052515.2,286046992.8,N
1604052535.1,286046990.5,N
1604052536.0,286046990.5,N
1604052555.8,286046992.4,N
1604052575.7,286046991.0,N
1604052595.5,286046989.5,N
1604052615.3,286046987.7,Y
1604052635.2,286046994.7,P
1604052655.0,286046994.3,P
1604052655.9,286046994.3,P
1604052675.8,286046994.1,Y
1604052695.6,286046998.1,P
1604052715.4,286047000.3,N
1604052735.3,286047000.8,N
1604052755.1,286046998.2,N
1604052775.9,286047002.2,N
1604052795.7,286047002.8,N
1604052815.5,286046999.8,N
1604052835.4,286047000.1,N
1604052855.2,286046998.2,N
1604052875.0,286046999.1,N
1604052906.0,286046999.3,E
1604052915.9,286046998.9,N
1604052935.7,286047001.2,P
1604052955.6,286046998.8,N
1604052975.4,286046998.4,N
1604052995.2,286046999.1,N
1604053015.1,286046998.5,N
1604053016.0,286046998.5,N
1604053035.8,286047002.0,N
1604053055.7,286047001.7,N
1604053075.5,286047005.8,Y
1604053095.3,286047005.4,P
1604053115.2,286047003.8,N
1604053135.0,286047000.3,N
1604053135.9,286047000.3,N
1604053155.8,286046999.4,N
1604053175.6,286046995.6,N
1604053195.4,286046995.9,N
1604053215.3,286046995.2,N
1604053235.1,286046997.7,N
1604053255.8,286046996.8,N
1604053275.7,286046998.9,N
1604053295.5,286046995.6,N
1604053315.4,286046993.6,N
1604053335.2,286046993.6,N
1604053355.0,286046995.8,N
1604053355.9,286046995.8,N
1604053375.8,286046999.5,N
1604053395.6,286046998.3,N
1604053415.4,286047000.7,N
1604053435.3,286046998.9,N
1604053455.1,286046997.0,N
1604053475.9,286046997.4,N
1604053495.7,286046997.8,N
1604053515.5,286046997.9,N
1604053535.4,286046996.3,N
1604053555.2,286046993.5,N
1604053575.0,286046992.1,N
1604053575.9,286046992.1,N
1604053595.8,286046994.5,N
1604053615.6,286046991.9,N
1604053635.4,286046993.6,N
1604053655.3,286046993.9,N
1604053675.1,286046986.3,Y
1604053695.9,286046994.8,P
1604053715.7,286046992.7,P
1604053735.5,286046990.1,P
1604053755.4,286046992.5,Y
1604053775.2,286046999.3,P
1604053795.1,286046998.9,N
1604053796.0,286046998.9,N
1604053815.8,286046998.7,N
1604053835.6,286046998.1,N
1604053855.5,286046998.9,N
1604053875.3,286047000.2,N
1604053895.1,286047002.0,N
1604053915.9,286047001.4,N
1604053935.7,286047002.5,N
1604053955.6,286047003.5,N
1604053975.4,286047001.5,N
1604053995.2,286047002.7,N
1604054015.1,286047002.7,N
1604054016.0,286047002.7,N
1604054035.8,286047000.3,N
1604054055.6,286047002.5,N
1604054075.5,286047002.7,N
1604054095.3,286047000.2,N
1604054115.2,286047000.5,N
1604054135.9,286047000.9,N
1604054155.7,286047001.2,N
1604054175.6,286047001.1,N
1604054195.4,286047000.5,N
1604054215.2,286047000.7,N
1604054235.1,286047000.3,N
1604054236.0,286047000.3,N
1604054255.8,286046999.9,N
1604054275.7,286047001.2,N
1604054295.5,286047000.3,N
1604054315.3,286047000.2,N
1604054335.2,286047000.1,N
1604054355.9,286047001.0,N
1604054375.7,286047001.0,N
1604054395.6,286047001.0,N
1604054415.4,286047000.1,N
1604054435.3,286047000.6,N
1604054455.1,286047000.4,N
1604054456.0,286047000.4,N
1604054475.8,286047000.7,N
1604054495.7,286046998.8,N
1604054515.5,286046998.3,N
1604054535.3,286046997.0,N
1604054555.2,286046997.0,N
1604054575.0,286046995.0,Y
1604054575.9,286046995.0,P
1604054595.8,286046997.3,N
1604054615.6,286046997.6,N
1604054635.4,286046995.9,N
1604054655.3,286046996.3,N
1604054675.1,286046994.9,N
1604054695.8,286046995.0,N
1604054715.7,286046996.8,N
1604054735.5,286046999.4,N
1604054755.4,286046997.4,N
1604054775.2,286046995.0,N
1604054795